SCP
0 0 0 0 0 0 0 0 0 0 0 0 0 0 0 0 0 0 0 0 0 0 0 0 0 0 0 0 0 0 0 0 0 0 0 0 0 0 0 0 0 0 0
0 0 0 0 0 0 0 0 0 0 0 0 0 0 0 0 0 0 0 0 0 0 0 0 0 0 0 0 0 0 0 0 0 0 0 0 0 0 0 0 0 0 0
0 0 0 0 0 0 0 0 0 0 0 0 0 0 0 0 0 0 0 0 0 0 0 0 0 0 0 0 0 0 0 0 0 0 0 0 0 0 0 0 0 0 0
0 0 0 0 0 0 0 0 0 0 0 0 0 0 0 0 0 0 0 0 0 0 0 0 0 0 0 0 0 0 0 0 0 0 0 0 0 0 0 0 0 0 0
0 0 0 0 0 0 0 0 0 0 0 0 0 0 0 0 0 0 0 0 0 0 0 0 0 0 0 0 0 0 0 0 0 0 0 0 0 0 0 0 0 0 0
0 0 0 0 0 0 0 0 0 0 0 0 0 0 0 0 0 0 0 0 0 0 0 0 0 0 0 0 0 0 0 0 0 0 0 0 0 0 0 0 0 0 0
0 0 0 0 0 0 0 0 0 0 0 0 0 0 0 0 0 0 0 0 0 0 0 0 0 0 0 0 0 0 0 0 0 0 0 0 0 0 0 0 0 0 0
0 0 0 0 0 0 0 0 0 0 0 0 0 0 0 0 0 0 0 0 0 0 0 0 0 0 0 0 0 0 0 0 0 0 0 0 0 0 0 0 0 0 0
0 0 0 0 0 0 0 0 0 0 0 0 0 0 0 0 0 0 0 0 0 0 0 0 0 0 0 0 0 0 0 0 0 0 0 0 0 0 0 0 0 0 0
0 0 0 0 0 0 0 0 0 0 0 0 0 0 0 0 0 0 0 0 0 0 0 0 0 0 0 0 0 0 0 0 0 0 0 0 0 0 0 0 0 0 0
0 0 0 0 0 0 0 0 0 0 0 0 0 0 0 0 0 0 0 0 0 0 0 0 0 0 0 0 0 0 0 -0 -0 0 0 0 0 0 0 0 0 0 0
0 0 0 0 0 0 0 0 0 0 0 0 0 0 0 0 0 0 0 0 0 0 0 0 0 0 0 0 0 0 -0 -0 0 0 0 0 0 0 0 0 0 0 0
0 0 0 0 0 0 0 0 0 0 0 0 0 0 0 0 0 0 0 0 0 0 0 0 0 0 0 0 0 -0 -0 -0 0 0 0 0 0 0 0 0 0 0 0
0 0 0 0 0 0 0 0 0 0 0 0 0 0 0 0 0 0 0 0 0 0 0 0 0 0 0 0 -0 0 0 0 0 0 0 0 0 0 0 0 0 0 0
0 0 0 0 0 0 0 0 0 0 0 0 0 0 0 0 0 0 0 0 0 0 0 0 0 0 0 0 0 0 0 0 0 0 0 0 0 0 0 0 0 0 0
0 0 0 0 0 0 0 0 0 0 0 0 0 0 0 0 0 0 0 0 0 0 0 0 0 0 0 0 0 0 0 0 0 0 0 0 0 0 0 0 0 0 0
0 0 0 0 0 0 0 0 0 0 0 0 0 0 0 0 0 0 0 0 0 0 0 0 0 0 0 0 0 0 0 0 0 0 0 0 0 0 0 0 0 0 0
0 0 0 0 0 0 0 0 0 0 0 0 0 0 0 0 0 0 0 0 0 0 0 0 0 0 0 0 0 0 0 0 0 0 0 0 0 0 0 0 0 0 0
0 0 0 0 0 0 0 0 0 0 0 0 0 0 0 0 0 0 0 0 0 0 0 0 0 0 0 0 0 0 0 0 0 0 0 0 0 0 0 0 0 0 0
0 0 0 0 0 0 0 0 0 0 0 0 0 0 0 0 0 0 0 0 0 0 0 0 0 0 0 0 0 0 0 0 0 0 0 0 0 0 0 0 0 0 0
0 0 0 0 0 0 0 0 0 0 0 0 0 0 0 0 0 0 0 0 0 0 0 0 0 0 0 0 0 0 0 0 0 0 0 0 0 0 0 0 0 0 0
0 0 0 0 0 0 0 0 0 0 0 0 0 0 0 0 0 0 0 0 0 0 0 0 0 0 0 0 0 0 0 0 0 0 0 0 0 0 0 0 0 0 0
0 0 0 0 0 0 0 0 0 0 0 0 0 0 0 0 0 0 0 0 0 0 0 0 0 0 0 0 0 0 0 0 0 0 0 0 0 0 0 0 0 0 0
0 0 0 0 0 0 0 0 0 0 0 0 0 0 0 0 0 -0 0 0 0 0 0 0 0 0 0 0 0 0 0 0 0 0 0 0 0 0 0 0 0 0 0
0 0 0 0 0 0 0 0 0 0 0 0 0 0 0 0 -0 -0 0 0 0 0 0 0 0 0 0 0 0 0 0 0 0 0 0 0 0 0 0 0 0 0 0
0 0 0 0 0 0 0 0 0 0 0 0 0 0 0 -0 -0 0 0 0 0 0 0 0 0 0 0 0 0 0 0 0 0 0 0 0 0 0 0 0 0 0 0
Wind_Speed
8 8 8 7 7 6 5 5 4 2 2 2 3 4 5 6 6 6 6 7 7 6 6 5 6 7 8 8 8 8 8 8 12 17 12 10 10 9 11 10 10 9 12
7 8 8 7 7 6 5 4 3 2 2 3 4 5 6 6 7 7 7 8 7 7 6 5 6 8 10 9 9 10 10 10 10 13 15 12 12 12 9 9 10 11 12
8 8 7 6 6 5 4 3 3 3 3 4 4 5 6 7 7 8 7 7 7 7 6 6 7 9 10 10 11 10 9 8 9 11 15 14 13 8 9 11 13 13 13
8 8 7 6 5 4 3 3 3 3 4 5 5 6 6 7 8 7 7 7 7 7 6 6 7 8 11 12 12 10 10 12 12 11 12 13 11 8 11 13 14 13 13
8 7 6 5 4 3 3 3 3 3 4 5 6 7 7 7 9 12 10 8 7 7 6 7 8 12 19 19 15 13 14 12 11 10 13 11 9 12 12 12 14 13 11
8 6 6 4 4 3 3 3 3 4 5 5 6 6 7 8 16 21 18 11 8 7 8 8 9 13 16 21 25 26 24 20 17 14 12 12 13 12 12 12 13 11 15
7 6 5 4 4 3 3 4 4 4 5 5 6 6 7 8 17 21 23 12 9 8 9 10 10 10 15 13 20 25 23 24 22 17 14 15 14 14 14 14 12 13 12
7 6 5 4 4 3 3 3 3 3 4 5 6 7 7 9 17 21 22 10 8 8 9 10 10 11 12 18 17 15 12 11 14 13 13 14 14 14 14 14 14 13 12
6 5 4 4 3 3 3 3 3 3 4 4 5 6 7 8 15 20 17 7 8 9 8 8 11 13 21 29 20 13 11 12 15 20 21 23 26 26 21 13 11 11 12
5 5 4 3 3 2 3 3 2 3 5 5 6 6 8 8 13 20 18 8 8 9 9 9 17 21 27 27 19 14 13 15 13 11 13 16 17 17 21 14 11 11 12
5 4 4 3 3 3 3 3 3 5 5 6 6 6 6 8 10 18 19 10 9 10 9 9 10 22 26 27 23 14 17 17 14 12 11 11 10 10 11 11 10 10 12
5 4 4 4 4 4 5 5 4 4 5 6 6 5 5 6 11 16 20 19 17 11 9 9 11 22 26 25 19 22 25 19 10 10 10 11 11 11 11 12 13 12 13
5 5 4 4 4 4 4 4 4 5 4 5 6 6 6 5 7 15 18 20 20 14 11 14 18 22 20 16 21 24 18 10 9 10 11 11 11 12 12 12 12 13 13
5 4 3 3 4 4 3 3 3 4 5 6 6 7 7 6 6 8 8 9 12 11 11 10 16 16 15 15 15 13 9 10 10 10 11 12 12 11 11 11 11 12 12
4 3 2 2 2 3 3 4 4 5 7 8 6 6 7 8 11 17 15 12 11 15 14 8 8 9 10 10 10 10 10 10 10 10 11 12 12 12 11 11 11 11 11
3 1 1 2 3 3 4 5 8 11 16 16 15 12 10 14 20 22 22 23 24 21 11 8 8 9 10 11 11 11 11 11 10 11 11 11 11 12 12 11 11 10 10
2 1 2 3 3 4 4 4 7 10 12 14 17 18 17 17 20 21 22 22 19 16 8 8 8 9 10 10 10 11 11 11 12 10 11 11 10 11 13 11 11 10 10
2 3 3 2 3 3 4 4 5 6 8 8 12 15 17 20 20 20 21 15 10 9 8 8 9 9 10 10 10 11 11 11 10 10 10 11 10 10 10 10 10 10 9
2 2 2 3 4 4 4 5 5 5 6 7 8 10 14 18 17 17 15 8 8 8 8 9 9 10 10 10 10 11 11 12 13 11 11 11 10 10 10 10 9 13 11
3 6 5 3 4 4 4 5 5 5 6 7 8 8 10 10 8 9 8 7 7 8 9 9 10 10 10 10 10 11 11 12 12 11 11 10 10 10 10 10 8 8 7
2 4 6 4 4 4 5 4 5 6 6 7 7 10 17 11 8 8 8 8 8 9 9 10 10 10 10 10 10 11 12 11 11 11 11 10 10 10 10 8 7 6 6
2 3 3 3 4 4 5 4 5 6 7 7 7 10 17 10 7 8 8 8 9 9 9 10 10 10 10 10 10 11 12 12 12 11 11 11 10 10 9 6 5 5 5
2 3 4 4 4 6 5 5 5 6 7 7 8 8 9 8 8 8 9 9 9 9 10 10 10 11 11 10 10 10 11 12 12 13 12 12 11 8 6 5 5 4 4
3 4 4 4 5 5 5 5 6 8 8 8 8 8 8 8 9 9 9 9 9 10 10 10 11 14 15 14 12 11 11 13 13 14 14 9 7 6 6 5 5 4 3
3 3 3 4 5 5 6 6 6 6 7 8 8 9 9 9 9 9 9 9 10 11 12 12 12 14 18 20 19 17 20 26 21 11 7 5 5 6 6 5 5 3 2
3 3 4 4 4 5 6 6 7 7 8 8 8 8 8 8 8 9 9 9 10 12 13 13 15 18 20 18 20 24 29 25 16 14 7 5 4 5 5 4 4 2 2
Wind_Direction
116 113 111 111 113 114 116 121 117 102 64 13 344 341 335 332 327 324 312 302 297 295 296 301 299 299 307 304 297 293 287 283 286 294 303 307 299 292 293 296 295 285 280
119 112 109 113 116 117 120 119 112 84 24 352 339 333 329 323 316 310 304 304 300 297 297 301 295 303 308 302 298 293 287 283 283 293 300 301 293 292 297 294 291 289 287
118 113 113 120 123 126 128 117 82 41 360 344 338 334 326 319 312 306 298 292 291 289 287 284 287 305 307 298 292 290 292 294 293 290 290 297 296 305 303 296 297 297 295
119 118 125 133 134 134 122 89 51 18 352 343 341 333 324 316 308 302 297 296 295 285 275 275 282 291 294 295 295 304 310 302 297 291 294 300 300 310 304 305 305 303 296
124 126 134 134 131 117 94 60 31 12 357 350 346 335 327 325 325 329 324 314 299 288 281 274 274 292 306 306 308 311 305 300 297 297 296 295 308 309 306 304 299 298 300
127 130 132 129 118 103 77 43 24 11 358 352 343 330 324 328 334 338 335 327 316 300 287 283 284 293 298 307 310 305 304 305 304 303 308 308 305 303 298 296 298 313 315
121 126 131 124 111 90 67 40 18 360 348 338 331 325 316 318 335 342 340 338 329 317 306 299 301 304 304 296 291 295 300 305 311 311 305 296 296 294 296 302 299 293 293
123 127 125 114 100 76 53 29 353 342 338 324 314 311 308 319 337 344 341 342 323 309 302 297 292 291 292 299 302 309 310 307 298 293 290 293 294 299 300 301 297 290 286
119 119 114 109 98 68 32 1 343 332 319 306 301 304 309 314 332 338 336 326 314 307 299 294 298 304 306 313 324 323 316 305 303 306 308 310 309 308 308 305 300 302 297
120 114 108 102 89 53 14 353 330 314 302 305 308 311 315 316 321 330 332 323 309 304 301 300 305 312 321 330 332 331 319 310 314 319 315 308 305 301 304 304 296 292 292
117 110 97 75 56 43 17 350 328 321 316 313 308 305 305 307 309 321 327 324 312 310 312 310 310 323 332 335 335 326 313 324 334 324 310 305 302 301 301 297 288 284 287
111 96 75 53 39 34 11 346 331 321 318 313 311 312 304 298 304 316 322 322 321 317 314 315 324 331 335 335 332 325 329 336 325 312 309 309 309 305 300 296 291 284 278
97 78 56 41 39 26 4 334 323 324 324 322 324 322 313 301 287 300 312 321 328 329 325 333 334 333 335 333 327 330 332 326 315 311 312 310 305 301 299 296 293 290 284
94 74 52 30 14 355 333 318 320 321 323 324 323 315 307 303 295 293 302 312 319 324 324 337 334 333 330 326 325 324 323 319 317 314 310 307 307 307 306 305 301 302 299
92 68 34 3 337 329 333 328 327 323 325 326 316 303 306 306 309 322 323 323 329 333 339 340 329 327 325 324 323 322 321 320 318 314 311 310 310 311 309 309 303 304 302
92 48 338 341 337 333 326 329 343 339 335 333 331 326 314 313 321 322 327 334 338 337 339 326 323 323 322 321 320 319 319 320 317 314 309 307 307 310 310 310 309 307 307
109 4 351 355 337 328 334 333 324 326 328 331 333 330 324 322 321 324 334 338 338 336 328 319 319 318 317 315 313 313 314 314 313 308 304 304 307 305 309 311 312 313 313
49 14 8 336 331 332 326 311 305 311 319 322 323 324 326 326 325 335 339 339 329 326 321 319 317 315 313 312 312 311 311 311 309 306 305 304 303 304 306 308 311 314 319
35 356 350 347 337 331 320 308 302 305 312 315 316 321 324 323 333 338 338 332 320 320 320 318 314 312 310 309 308 308 307 306 308 308 303 302 303 304 302 304 308 320 329
20 359 359 351 330 325 312 305 308 315 318 317 317 319 317 325 337 332 331 324 320 319 319 316 314 312 309 307 307 307 306 307 306 303 301 301 301 301 301 303 307 314 319
11 351 349 340 321 308 303 307 315 317 314 310 312 320 330 344 333 325 324 323 324 322 319 314 312 309 306 304 304 304 303 301 299 298 298 299 302 303 302 299 302 306 312
360 334 321 315 309 307 315 322 316 311 308 309 314 323 333 337 324 321 322 323 323 320 315 311 306 304 303 303 303 302 300 298 296 295 295 298 300 298 296 301 307 310 317
345 328 320 316 314 319 324 314 308 308 310 315 320 325 327 324 323 321 322 323 320 316 313 309 304 303 303 302 299 294 290 289 289 291 290 290 291 295 304 307 309 313 325
345 336 327 321 318 320 315 312 312 315 320 322 323 321 319 319 319 319 321 318 316 313 310 307 303 301 303 304 302 296 288 286 286 282 282 285 298 314 315 311 312 320 334
348 339 325 313 312 316 315 312 309 312 318 320 317 315 314 313 315 317 318 316 315 312 311 308 304 306 307 305 303 301 300 305 308 312 311 310 316 323 318 319 327 1 31
349 337 322 317 314 310 308 307 310 316 314 310 308 307 306 310 314 315 314 314 314 312 310 308 308 308 309 308 307 310 314 321 334 346 345 327 331 327 325 338 345 11 52